Regional Weather Roundup
Issued by NWS

Home | Current Version | Previous Version | Text Only | Print | Product List | Glossary Off
Versions: 1 2 3 4 5 6 7 8 9 10 11 12 13 14 15 16 17 18 19 20 21 22 23 24 25 26 27 28 29 30 31 32 33 34 35 36 37 38 39 40 41 42 43 44 45 46 47 48 49 50

000
ASUS43 KDTX 241710
RWRMI
MICHIGAN HOURLY REGIONAL WEATHER ROUNDUP
NATIONAL WEATHER SERVICE DETROIT/PONTIAC MI
100 PM EDT FRI APR 24 2015

NOTE: "FAIR" INDICATES FEW OR NO CLOUDS BELOW 12,000 FEET WITH NO
SIGNIFICANT WEATHER AND/OR OBSTRUCTION TO VISIBILITY.

MIZ047>049-052>055-059>063-066>070-074>076-081>083-241800-
SOUTHEAST LOWER MICHIGAN

CITY           SKY/WX    TMP DP  RH WIND       PRES   REMARKS
ADRIAN         SUNNY     52  24  33 W9        30.07F
ALMA           SUNNY     46  19  34 NW3       30.09F
ANN ARBOR      SUNNY     51  19  28 W10       30.07F
BAD AXE        SUNNY     41  20  43 W10       30.09S
CARO           SUNNY     45  22  41 CALM      30.08F
DETROIT CITY   SUNNY     47  20  34 VRB5      30.08F
DETROIT        SUNNY     50  23  34 VRB5      30.09F
FLINT          SUNNY     48  20  32 W9        30.09F
GROSSE ILE     SUNNY     45  27  49 SE7       30.08F
HILLSDALE      SUNNY     53  20  28 NW3       30.06F
HOWELL         SUNNY     48  19  31 N8        30.06F

CITY           SKY/WX    TMP DP  RH WIND       PRES   REMARKS
JACKSON        SUNNY     51  23  33 VRB3      30.06F
LAMBERTVILLE   SUNNY     54  27  35 W8        30.08F
LANSING        SUNNY     51  19  28 NW8       30.08F
LAPEER         FAIR      45  17  32 W9        30.08S
MASON          SUNNY     49  20  31 W3        30.07F
MONROE         SUNNY     50  25  37 W8        30.07F
MT. CLEMENS    SUNNY     48  22  36 W10       30.05F
PONTIAC        SUNNY     46  19  34 W8        30.06F
PORT HOPE        N/A     40  22  48 NW9       30.07S WCI  34
PORT HURON     SUNNY     45  19  36 NW10G18   30.09S
TRI CITIES     SUNNY     47  21  35 VRB6      30.09F
TROY           SUNNY     48  19  30 W9        30.10F
SAGINAW HB     SUNNY     46  19  34 N3        30.08F
$$
MIZ043>046-050>051-056>058-064>065-071>073-077>080-241800-
SOUTHWEST LOWER MICHIGAN

CITY           SKY/WX    TMP DP  RH WIND       PRES   REMARKS
BATTLE CREEK   SUNNY     51  22  31 VRB3      30.07F
BENTON HARBOR  MOSUNNY   52  19  27 SW6       30.06F
BIG RAPIDS     SUNNY     47  18  31 CALM      30.06F
COLDWATER      SUNNY     53  19  26 W5        30.08S
FREMONT        FAIR      48  12  24 CALM      30.08F
HOLLAND        SUNNY     54  25  32 CALM      30.08F
GRAND RAPIDS   SUNNY     51  21  30 CALM      30.08F
IONIA          FAIR      48  20  32 CALM      30.07F
KALAMAZOO      SUNNY     53  21  28 MISG      30.07F
LUDINGTON      MOSUNNY   48  24  38 W7        30.09F
MARSHALL       SUNNY     52  23  32 SW8       30.06F
MOUNT PLEASANT SUNNY     48  20  32 W8        30.08S
MUSKEGON       SUNNY     53  19  26 N5        30.08F
SOUTH HAVEN    SUNNY     56  16  21 W7        30.07S
$$
MIZ016>042-241800-
NORTHERN LOWER MICHIGAN

CITY           SKY/WX    TMP DP  RH WIND       PRES   REMARKS
ALPENA         SUNNY     43  17  35 NW13      30.07S
BEAVER ISLAND  SUNNY     39  13  33 W6        30.11F WCI  35
BELLAIRE       SUNNY     42  16  35 NW7       30.10F
CADILLAC       SUNNY     46  19  35 W7        30.06F
CHARLEVOIX     SUNNY     37  24  58 N6        30.14F WCI  33
FRANKFORT      MOSUNNY   47  14  26 N5        30.10S
GAYLORD        SUNNY     39  13  34 W8G20     30.06S WCI  33
GRAYLING       SUNNY     43  19  38 NW9       30.07F
HARBOR SPRINGS SUNNY     36  22  57 SW13      30.09F WCI  27
HOUGHTON LAKE  SUNNY     43  18  36 W8        30.07F
MANISTEE       MOSUNNY   45  19  36 N8        30.10S
OSCODA         SUNNY     46  16  30 NW6       30.06R
PELLSTON       SUNNY     39  15  37 W14       30.10S WCI  31
ROGERS CITY    SUNNY     38  22  51 N14G22    30.09S WCI  30
TRAVERSE CITY  MOSUNNY   41  24  51 NE8       30.10F
$$
MIZ007>008-015-241800-
EASTERN UPPER MICHIGAN

CITY           SKY/WX    TMP DP  RH WIND       PRES   REMARKS
KINROSS        SUNNY     36  16  44 NW17      30.07S WCI  25
MACKINAC ISLAN SUNNY     36  22  56 SW9G16    30.08S WCI  29
NEWBERRY       SUNNY     38  21  51 N16G22    30.07F WCI  29
S. S. MARIE    SUNNY     34  16  47 NW14      30.07F WCI  25
MUNISING         N/A     37  22  54 NE12      30.10F WCI  29
$$
MIZ004>006-011>014-085-241800-
CENTRAL UPPER MICHIGAN

CITY           SKY/WX    TMP DP  RH WIND       PRES   REMARKS
MANISTIQUE     SUNNY     42  21  44 S3        30.08F
ESCANABA       SUNNY     41  21  45 SE12      30.10S
MENOMINEE      MOSUNNY   43  23  45 E6        30.09F
SAWYER-GWINN   SUNNY     41  18  38 CALM      30.06F
$$
MIZ001>003-009>011-084-241800-
WESTERN UPPER MICHIGAN

CITY           SKY/WX    TMP DP  RH WIND       PRES   REMARKS
IRON MOUNTAIN  MOSUNNY   46  17  31 VRB6      30.03F
HOUGHTON       SUNNY     41  17  38 E8        30.05F
COPPER HARBOR    N/A     39  25  57 E8        30.08F WCI  33
IRONWOOD       MOSUNNY   45  19  36 SE8       29.98S
$$

ABBREVIATIONS USED IN REMARKS
   TC - TEMPERATURE IN CELSIUS
  WCI - WIND CHILL INDEX
   HX - HEAT INDEX
  VSB - VISIBILITY




USA.gov is the U.S. government's official web portal to all federal, state and local government web resources and services.